• In Latvia
  • List of Countries
  • For 7 days
  • Water Temperature
  • Satellite Maps
  • Weather Map
  • Weather Widgets
  • user-avatar
    Login

    Hourly Weather Bubanza

    Today, 19 June, Tuesday

    Time Temperature Precipitation Wind Pressure Humidity
    00:00 +19°C° 0.1 mm 0 mps 673 mmHg 86%
    01:00 +19°C° 0.1 mm 0 mps 673 mmHg 87%
    02:00 +19°C° 0.1 mm 0 mps 673 mmHg 88%
    03:00 +19°C° 0.1 mm 0 mps 673 mmHg 87%
    04:00 +19°C° 0.1 mm 0 mps 673 mmHg 87%
    05:00 +19°C° 0.1 mm 0 mps 673 mmHg 86%
    06:00 +20°C° 0.1 mm 0 mps 673 mmHg 83%
    07:00 +20°C° 0.1 mm 0 mps 674 mmHg 81%
    08:00 +21°C° 0.1 mm 0 mps 674 mmHg 78%
    09:00 +24°C° 0 mm 1 mps 674 mmHg 69%
    10:00 +26°C° 0 mm 1 mps 675 mmHg 59%
    11:00 +28°C° 0 mm 2 mps 675 mmHg 50%
    12:00 +28°C° 0 mm 2 mps 674 mmHg 51%
    13:00 +28°C° 0 mm 2 mps 674 mmHg 52%
    14:00 +28°C° 0 mm 2 mps 673 mmHg 52%
    15:00 +28°C° 0 mm 2 mps 673 mmHg 55%
    16:00 +27°C° 0 mm 2 mps 673 mmHg 57%
    17:00 +27°C° 0 mm 2 mps 673 mmHg 59%
    18:00 +25°C° 0 mm 1 mps 673 mmHg 65%
    19:00 +23°C° 0 mm 1 mps 673 mmHg 72%
    20:00 +20°C° 0 mm 0 mps 673 mmHg 78%
    21:00 +19°C° 0 mm 0 mps 673 mmHg 80%
    22:00 +19°C° 0 mm 0 mps 674 mmHg 82%
    23:00 +19°C° 0 mm 0 mps 674 mmHg 84%

    Tomorrow, 20 June, Wednesday

    Time Temperature Precipitation Wind Pressure Humidity
    00:00 +21°C° 0 mm 1 mps 674 mmHg 84%
    01:00 +20°C° 0 mm 1 mps 674 mmHg 84%
    02:00 +20°C° 0 mm 1 mps 673 mmHg 83%
    03:00 +20°C° 0 mm 1 mps 673 mmHg 83%
    04:00 +20°C° 0 mm 1 mps 673 mmHg 82%
    05:00 +20°C° 0 mm 1 mps 673 mmHg 82%
    06:00 +20°C° 0 mm 0 mps 674 mmHg 76%
    07:00 +21°C° 0 mm 0 mps 674 mmHg 69%
    08:00 +22°C° 0 mm 0 mps 675 mmHg 63%
    09:00 +26°C° 0 mm 1 mps 675 mmHg 56%
    10:00 +28°C° 0 mm 2 mps 675 mmHg 48%
    11:00 +30°C° 0 mm 2 mps 676 mmHg 41%
    12:00 +30°C° 0 mm 2 mps 675 mmHg 41%
    13:00 +30°C° 0 mm 2 mps 674 mmHg 41%
    14:00 +30°C° 0 mm 2 mps 674 mmHg 41%
    15:00 +29°C° 0 mm 2 mps 673 mmHg 45%
    16:00 +28°C° 0 mm 1 mps 673 mmHg 50%
    17:00 +27°C° 0 mm 1 mps 673 mmHg 54%
    18:00 +25°C° 0 mm 1 mps 673 mmHg 59%
    19:00 +24°C° 0 mm 1 mps 673 mmHg 65%
    20:00 +20°C° 0 mm 0 mps 674 mmHg 71%
    21:00 +20°C° 0 mm 0 mps 674 mmHg 71%
    22:00 +20°C° 0 mm 0 mps 674 mmHg 72%
    23:00 +22°C° 0 mm 1 mps 675 mmHg 72%

    Day after tomorrow, 21 June, Thursday

    Time Temperature Precipitation Wind Pressure Humidity
    00:00 +22°C° 0.1 mm 1 mps 675 mmHg 74%
    01:00 +21°C° 0.1 mm 1 mps 674 mmHg 75%
    02:00 +21°C° 0.1 mm 1 mps 674 mmHg 77%
    03:00 +21°C° 0.2 mm 1 mps 674 mmHg 78%
    04:00 +21°C° 0.2 mm 1 mps 674 mmHg 79%
    05:00 +21°C° 0.2 mm 1 mps 674 mmHg 80%
    06:00 +19°C° 0.1 mm 0 mps 674 mmHg 78%
    07:00 +20°C° 0.1 mm 0 mps 675 mmHg 75%
    08:00 +21°C° 0.1 mm 0 mps 675 mmHg 73%
    09:00 +25°C° 0 mm 1 mps 676 mmHg 66%
    10:00 +26°C° 0 mm 1 mps 676 mmHg 59%
    11:00 +28°C° 0 mm 2 mps 676 mmHg 53%
    12:00 +28°C° 0 mm 2 mps 675 mmHg 51%
    13:00 +29°C° 0 mm 2 mps 675 mmHg 49%
    14:00 +29°C° 0 mm 2 mps 674 mmHg 47%
    15:00 +28°C° 0 mm 2 mps 674 mmHg 51%
    16:00 +27°C° 0 mm 2 mps 673 mmHg 55%
    17:00 +26°C° 0 mm 1 mps 673 mmHg 59%
    18:00 +25°C° 0.1 mm 1 mps 673 mmHg 66%
    19:00 +23°C° 0.1 mm 1 mps 674 mmHg 72%
    20:00 +19°C° 0.1 mm 0 mps 674 mmHg 79%
    21:00 +19°C° 0 mm 0 mps 675 mmHg 80%
    22:00 +19°C° 0 mm 0 mps 675 mmHg 80%
    23:00 +19°C° 0 mm 0 mps 675 mmHg 81%

    22 June, Friday

    Time Temperature Precipitation Wind Pressure Humidity
    00:00 +19°C° 0 mm 0 mps 675 mmHg 82%
    01:00 +20°C° 0 mm 1 mps 674 mmHg 82%
    02:00 +20°C° 0 mm 1 mps 674 mmHg 83%
    03:00 +20°C° 0 mm 1 mps 674 mmHg 83%
    04:00 +20°C° 0 mm 1 mps 674 mmHg 83%
    05:00 +20°C° 0 mm 1 mps 674 mmHg 83%
    06:00 +21°C° 0.1 mm 1 mps 675 mmHg 80%
    07:00 +20°C° 0.1 mm 0 mps 675 mmHg 76%
    08:00 +21°C° 0.1 mm 0 mps 676 mmHg 72%
    09:00 +24°C° 0.2 mm 1 mps 676 mmHg 71%
    10:00 +24°C° 0.2 mm 1 mps 676 mmHg 69%
    11:00 +25°C° 0.2 mm 2 mps 676 mmHg 68%
    12:00 +26°C° 0.2 mm 2 mps 675 mmHg 65%
    13:00 +27°C° 0.2 mm 2 mps 674 mmHg 63%
    14:00 +28°C° 0.2 mm 2 mps 674 mmHg 60%
    15:00 +27°C° 0.5 mm 2 mps 673 mmHg 64%
    16:00 +26°C° 0.5 mm 1 mps 673 mmHg 67%
    17:00 +26°C° 0.5 mm 1 mps 673 mmHg 70%
    18:00 +24°C° 0.5 mm 1 mps 673 mmHg 76%
    19:00 +23°C° 0.5 mm 1 mps 674 mmHg 81%
    20:00 +19°C° 0.5 mm 0 mps 674 mmHg 86%
    21:00 +19°C° 0.1 mm 0 mps 674 mmHg 86%
    22:00 +21°C° 0.1 mm 1 mps 674 mmHg 87%
    23:00 +21°C° 0.1 mm 1 mps 675 mmHg 87%

    23 June, Saturday

    Time Temperature Precipitation Wind Pressure Humidity
    00:00 +20°C° 0 mm 1 mps 674 mmHg 88%
    01:00 +20°C° 0 mm 1 mps 674 mmHg 88%
    02:00 +20°C° 0 mm 1 mps 673 mmHg 88%
    03:00 +19°C° 0 mm 1 mps 673 mmHg 88%
    04:00 +19°C° 0 mm 1 mps 673 mmHg 89%
    05:00 +19°C° 0 mm 1 mps 673 mmHg 89%
    06:00 +20°C° 0 mm 1 mps 674 mmHg 84%
    07:00 +20°C° 0 mm 0 mps 675 mmHg 78%
    08:00 +21°C° 0 mm 0 mps 675 mmHg 73%
    09:00 +24°C° 0.1 mm 1 mps 675 mmHg 69%
    10:00 +26°C° 0.1 mm 1 mps 675 mmHg 65%
    11:00 +27°C° 0.1 mm 2 mps 675 mmHg 60%
    12:00 +27°C° 0.1 mm 2 mps 674 mmHg 59%
    13:00 +28°C° 0.1 mm 2 mps 674 mmHg 57%
    14:00 +28°C° 0.1 mm 2 mps 673 mmHg 55%
    15:00 +28°C° 0.2 mm 2 mps 673 mmHg 59%
    16:00 +27°C° 0.2 mm 2 mps 673 mmHg 62%
    17:00 +26°C° 0.2 mm 1 mps 672 mmHg 65%
    18:00 +25°C° 0.2 mm 1 mps 673 mmHg 71%
    19:00 +23°C° 0.2 mm 1 mps 673 mmHg 77%
    20:00 +19°C° 0.2 mm 0 mps 674 mmHg 83%
    21:00 +19°C° 0 mm 0 mps 674 mmHg 84%
    22:00 +21°C° 0 mm 1 mps 674 mmHg 85%
    23:00 +20°C° 0 mm 1 mps 674 mmHg 86%

    24 June, Sunday

    Time Temperature Precipitation Wind Pressure Humidity
    00:00 +20°C° 0 mm 1 mps 673 mmHg 87%
    01:00 +20°C° 0 mm 1 mps 673 mmHg 88%
    02:00 +19°C° 0 mm 1 mps 672 mmHg 88%
    03:00 +19°C° 0 mm 1 mps 672 mmHg 88%
    04:00 +19°C° 0 mm 1 mps 672 mmHg 88%
    05:00 +19°C° 0 mm 1 mps 672 mmHg 87%
    06:00 +20°C° 0 mm 1 mps 673 mmHg 81%
    07:00 +20°C° 0 mm 0 mps 674 mmHg 74%
    08:00 +22°C° 0 mm 0 mps 675 mmHg 67%
    09:00 +25°C° 0 mm 1 mps 675 mmHg 62%
    10:00 +27°C° 0 mm 2 mps 674 mmHg 57%
    11:00 +28°C° 0 mm 2 mps 674 mmHg 51%
    12:00 +28°C° 0 mm 2 mps 674 mmHg 51%
    13:00 +29°C° 0 mm 2 mps 673 mmHg 51%
    14:00 +29°C° 0 mm 2 mps 673 mmHg 50%
    15:00 +28°C° 0 mm 2 mps 672 mmHg 53%
    16:00 +27°C° 0 mm 1 mps 672 mmHg 56%
    17:00 +27°C° 0 mm 1 mps 672 mmHg 59%
    18:00 +25°C° 0 mm 1 mps 672 mmHg 65%
    19:00 +23°C° 0 mm 1 mps 673 mmHg 72%
    20:00 +19°C° 0 mm 0 mps 673 mmHg 79%
    21:00 +21°C° 0 mm 1 mps 673 mmHg 79%
    22:00 +21°C° 0 mm 1 mps 673 mmHg 80%
    23:00 +20°C° 0 mm 1 mps 673 mmHg 81%
    Show more